Regional Weather Roundup
Issued by NWS Green Bay, WI

Home | Current Version | Previous Version | Text Only | Print | Product List | Glossary On
Versions: 1 2 3 4 5 6 7 8 9 10 11 12 13 14 15 16 17 18 19 20 21 22 23 24 25 26 27 28 29 30 31 32 33 34 35 36 37 38 39 40 41 42 43 44 45 46 47 48 49 50
629
ASUS43 KGRB 041000
RWRGRB

NORTH-CENTRAL AND NORTHEAST WISCONSIN REGIONAL WEATHER ROUNDUP
NATIONAL WEATHER SERVICE GREEN BAY WI
500 AM CDT WED MAY 04 2016

WIZ005-009-010>012-018-019-041100-
NORTH CENTRAL WISCONSIN

CITY           SKY/WX    TMP DP  RH WIND       PRES   REMARKS
IRONWOOD         N/A     39  34  81 N7        29.83S
MANITOWISH WTR NOT AVBL
ARBOR VITAE    NOT AVBL
EAGLE RIVER    NOT AVBL
LAND O LAKES   NOT AVBL
RHINELANDER    CLOUDY    41  34  76 N8        29.80R
PHILLIPS       NOT AVBL
ANTIGO         NOT AVBL
TOMAHAWK       NOT AVBL
MERRILL        NOT AVBL
$$

WIZ013-073-041100-
NORTHEAST WISCONSIN

CITY           SKY/WX    TMP DP  RH WIND       PRES   REMARKS
IRON MOUNTAIN  CLOUDY    41  35  79 N14       29.74R
MARINETTE      CLOUDY    41  36  81 N13       29.74S
$$

WIZ017-030-035>037-045-041100-
CENTRAL WISCONSIN

CITY           SKY/WX    TMP DP  RH WIND       PRES   REMARKS
MEDFORD        NOT AVBL
WAUSAU         PTCLDY    41  36  82 NW7       29.78R
MOSINEE        NOT AVBL
MARSHFIELD     PTCLDY    39  35  86 NW9       29.80S
WISC RAPIDS    CLEAR     42  35  76 N9        29.81R
STEVENS POINT  NOT AVBL
WAUPACA        NOT AVBL
SHAWANO        NOT AVBL
CLINTONVILLE   NOT AVBL
WAUTOMA        CLOUDY    43  39  86 N9        29.78R
$$

WIZ038-039-048-051-041100-
FOX VALLEY

CITY           SKY/WX    TMP DP  RH WIND       PRES   REMARKS
NWS GREEN BAY  LGT RAIN  42  36  79 N13       29.74R
APPLETON       NOT AVBL
OSHKOSH        CLEAR     43  37  79 N16       29.73R
FOND DU LAC    CLOUDY    45  40  82 N13       29.73R
$$

WIZ022-050-052-041100-
EAST CENTRAL WISCONSIN

CITY           SKY/WX    TMP DP  RH WIND       PRES   REMARKS
EPHRAIM        NOT AVBL
STURGEON BAY   PTCLDY    39  34  81 N15       29.73S
MANITOWOC      PTCLDY    43  37  81 N16G25    29.71R
SHEBOYGAN      CLOUDY    45  39  79 N13       29.70R
$$

LMZ563-521-522-541>543-041100-
LAKESHORE

STATION/POSITION TIME  TEMP    WIND        PRES    VSBY  WAVE
                       AIR SEA DIR/SP/G                  HT/PER
                 (UTC) (F)     (DEG/KT/KT) (MB)    (MI)  (FT/S)
SHEBOYGAN LKSHOR 0900   45     360/ 16/ 20 1005.4R
KEWAUNEE LKSHORE 0900   42     340/ 14/ 18 1005.0R
ALGOMA MARINA    0915          330/ 14/ 18   N/A
NORTHPORT PIER   0926   41     330/ 19/ 25 1005.8S
N MID LAKE BUOY  0850   40 38  320/ 17/ 19 1004.3S         3/ 4
CHAMBERS ISLAND  0900   42     320/ 14/ 17 1006.4R
MENOMINEE LKSHOR 0900   42     320/ 14/ 17 1005.4R
$$




USA.gov is the U.S. government's official web portal to all federal, state and local government web resources and services.